Flag for Hungary Weather past 2 weeks in Debrecen, Hungary

Now
86 °F

Sunny.


Feels Like: 87 °F
Forecast: 68 / 96 °F
Wind: 2 mph from West

Location: Debrecen Airport

Current Time: Aug 29, 2015 at 11:46:12 AM

Latest Report: Aug 29, 2015 at 10:45 AM


Visibility: 10 mi

Pressure: 30.21 "Hg

Humidity: 46%

Dew point: 63 °F

Location of DebrecenLocation

Historic Weather in Debrecen — Graph

°F

Debrecen temperature yesterday

Maximum temperature yesterday: 90 °F (at 1:45 PM)
Minimum temperature yesterday: 63 °F (at 5:45 AM)
Average temperature yesterday: 79 °F

Past Weeks' High & Low Weather Summary

 TemperatureHumidityPressure
High97 °F (Aug 15, 3:45 PM)100% (Aug 24, 4:45 AM)30.21 "Hg (Aug 24, 4:45 AM)
Low55 °F (Aug 24, 4:45 AM)20% (Aug 14, 3:45 PM)29.71 "Hg (Aug 16, 3:45 PM)
Average72 °F67%30.00 "Hg
* Reported Aug 14 9:15 AM — Aug 29 9:15 AM, Debrecen, Weather by CustomWeather, © 2015

Note: Actual official high and low records may vary slightly from our data, if they occured in-between our weather recording intervals... More about our weather records

Advertising

Debrecen weather history for previous 24 hours

 ConditionsComfort  
Time TempWeatherWind HumidityBarometerVisibility
9:15 AM
Sat, Aug 29
79 °FSunny.1 mph58%30.21 "Hg10 mi
8:45 AM75 °FSunny.No wind65%30.18 "Hg10 mi
7:45 AM72 °FSunny.No wind73%30.18 "Hg10 mi
7:15 AM68 °FSunny.No wind83%30.18 "Hg10 mi
6:45 AM66 °FClear.No wind83%30.18 "Hg10 mi
6:15 AM64 °FClear.No wind88%30.15 "Hg10 mi
5:45 AM66 °FClear.No wind83%30.15 "Hg10 mi
4:45 AM66 °FClear.No wind83%30.15 "Hg10 mi
8:45 PM
Fri, Aug 28
75 °FClear.No wind69%30.09 "Hg10 mi
8:15 PM79 °FSunny.No wind54%30.09 "Hg10 mi
7:45 PM84 °FSunny.No wind43%30.09 "Hg10 mi
7:15 PM86 °FSunny.3 mph38%30.09 "Hg10 mi
6:45 PM88 °FSunny.5 mph33%30.09 "Hg10 mi
2:45 PM90 °FSunny.12 mph31%30.09 "Hg10 mi
2:15 PM90 °FSunny.10 mph31%30.09 "Hg10 mi
1:45 PM90 °FSunny.12 mph29%30.09 "Hg10 mi
1:15 PM88 °FSunny.9 mph31%30.09 "Hg10 mi
12:45 PM88 °FSunny.9 mph33%30.09 "Hg10 mi
12:15 PM86 °FSunny.12 mph33%30.09 "Hg10 mi
11:45 AM86 °FSunny.13 mph35%30.12 "Hg10 mi
11:15 AM84 °FSunny.13 mph37%30.12 "Hg10 mi
Weather by CustomWeather, © 2015

See weather overviewHow to use our weather pages